TimeEDT,TemperatureF,Dew PointF,Humidity,Sea Level PressureIn,VisibilityMPH,Wind Direction,Wind SpeedMPH,Gust SpeedMPH,PrecipitationIn,Events,Conditions,WindDirDegrees,DateUTC
12:51 AM,62.1,30.0,30,30.21,10.0,SE,5.8,-,N/A,,Clear,140,2013-05-03 04:51:00
1:51 AM,63.0,30.9,30,30.20,10.0,SSE,13.8,19.6,N/A,,Clear,160,2013-05-03 05:51:00
2:51 AM,61.0,34.0,36,30.19,10.0,SSE,15.0,23.0,N/A,,Clear,150,2013-05-03 06:51:00
3:51 AM,60.1,37.0,42,30.19,10.0,SSE,16.1,28.8,N/A,,Clear,160,2013-05-03 07:51:00
4:51 AM,59.0,37.0,44,30.18,10.0,SSE,18.4,27.6,N/A,,Clear,160,2013-05-03 08:51:00
5:51 AM,59.0,35.1,41,30.19,10.0,SSE,16.1,26.5,N/A,,Clear,160,2013-05-03 09:51:00
6:51 AM,57.9,37.0,46,30.20,10.0,SSE,21.9,28.8,N/A,,Clear,150,2013-05-03 10:51:00
7:51 AM,60.1,35.1,39,30.21,10.0,SSE,24.2,31.1,N/A,,Clear,160,2013-05-03 11:51:00
8:51 AM,63.0,36.0,37,30.22,10.0,SSE,18.4,26.5,N/A,,Clear,150,2013-05-03 12:51:00
9:51 AM,66.0,36.0,33,30.23,10.0,SSE,19.6,26.5,N/A,,Clear,150,2013-05-03 13:51:00
10:51 AM,70.0,34.0,27,30.23,10.0,South,18.4,25.3,N/A,,Clear,170,2013-05-03 14:51:00
11:51 AM,72.0,36.0,27,30.23,10.0,SSE,13.8,20.7,N/A,,Clear,160,2013-05-03 15:51:00
12:51 PM,73.9,37.9,27,30.21,10.0,SE,15.0,25.3,N/A,,Clear,140,2013-05-03 16:51:00
1:51 PM,75.0,39.0,27,30.19,10.0,SE,11.5,-,N/A,,Clear,140,2013-05-03 17:51:00
2:51 PM,77.0,39.9,26,30.17,10.0,South,13.8,20.7,N/A,,Clear,170,2013-05-03 18:51:00
3:51 PM,78.1,39.0,25,30.16,10.0,SSE,15.0,26.5,N/A,,Clear,150,2013-05-03 19:51:00
4:51 PM,78.1,37.9,24,30.14,10.0,SE,16.1,23.0,N/A,,Clear,140,2013-05-03 20:51:00
5:51 PM,77.0,39.0,25,30.14,10.0,South,10.4,18.4,N/A,,Clear,170,2013-05-03 21:51:00
6:51 PM,75.9,37.0,24,30.14,10.0,SSE,13.8,19.6,N/A,,Clear,160,2013-05-03 22:51:00
7:51 PM,73.0,37.0,27,30.15,10.0,South,9.2,-,N/A,,Clear,170,2013-05-03 23:51:00
8:51 PM,69.1,37.9,32,30.17,10.0,South,5.8,-,N/A,,Clear,170,2013-05-04 00:51:00
9:51 PM,66.9,39.0,36,30.18,10.0,SSE,6.9,-,N/A,,Clear,150,2013-05-04 01:51:00
10:51 PM,66.9,39.0,36,30.17,10.0,SSE,10.4,18.4,N/A,,Clear,160,2013-05-04 02:51:00
11:51 PM,64.9,39.9,40,30.17,10.0,SSE,15.0,23.0,N/A,,Clear,150,2013-05-04 03:51:00